Date,TemperatureHighF,TemperatureAvgF,TemperatureLowF,DewpointHighF,DewpointAvgF,DewpointLowF,HumidityHigh,HumidityAvg,HumidityLow,PressureMaxIn,PressureMinIn,WindSpeedMaxMPH,WindSpeedAvgMPH,GustSpeedMaxMPH,PrecipitationSumIn
2013-1-1,19.0,12.7,3.9,14.9,8.6,0.9,89,84,78,30.34,30.19,9,4,10,0.00
2013-1-2,30.1,16.6,0.0,22.2,11.5,-3.2,91,81,69,30.31,30.16,10,6,12,0.01
2013-1-3,32.4,23.7,8.4,30.3,20.2,4.6,92,86,81,30.42,30.20,16,7,18,0.00
2013-1-4,32.9,18.4,2.3,26.2,14.5,-0.4,91,85,75,30.40,30.31,16,7,17,0.00
2013-1-5,37.1,30.0,17.6,34.6,27.3,14.5,96,90,81,30.31,30.04,17,9,21,0.02
2013-1-6,35.9,26.2,20.4,32.8,22.0,16.9,89,84,75,30.38,30.04,20,11,26,0.00
2013-1-7,41.0,30.6,20.3,33.7,25.4,17.3,90,81,70,30.38,30.14,13,7,17,0.00
2013-1-8,46.3,36.1,29.7,35.7,30.4,25.3,86,80,63,30.17,30.05,13,6,14,0.00
2013-1-9,48.2,37.4,28.7,39.2,32.8,26.4,93,84,65,30.52,30.11,14,4,14,0.00
2013-1-10,41.6,36.0,28.7,41.1,33.0,26.4,98,89,68,30.48,29.80,16,7,20,0.61
2013-1-11,57.4,50.1,41.4,52.3,47.4,40.6,98,91,80,29.82,29.67,15,9,19,0.13
2013-1-12,52.7,38.4,23.3,48.4,34.0,21.8,100,84,73,30.03,29.71,17,10,20,0.00
2013-1-13,23.1,18.1,12.3,21.3,13.9,8.4,93,84,76,30.37,29.97,20,11,22,0.00
2013-1-14,25.8,15.6,9.3,15.5,10.5,6.5,89,80,62,30.55,30.37,8,3,9,0.00
2013-1-15,30.8,18.5,8.7,18.9,12.8,5.7,90,79,55,30.49,30.20,9,2,11,0.00
2013-1-16,37.4,26.0,11.2,29.8,20.5,8.3,89,80,64,30.20,29.97,20,9,22,0.01
2013-1-17,33.8,28.6,21.6,30.3,23.1,18.3,92,80,62,30.48,30.14,13,6,21,0.00
2013-1-18,48.8,35.0,21.6,36.9,27.8,18.1,86,75,57,30.48,30.02,23,11,25,0.02
2013-1-19,52.7,42.8,31.7,42.5,35.2,25.6,81,75,65,30.14,29.85,27,14,28,0.00
2013-1-20,30.9,19.0,15.2,24.7,12.4,8.7,92,75,63,30.39,30.16,27,13,32,0.00
2013-1-21,15.3,9.6,4.9,10.8,1.7,-2.1,82,70,54,30.44,30.33,24,15,28,0.00
2013-1-22,16.0,9.1,2.4,6.4,0.5,-2.6,89,68,48,30.53,30.42,12,6,14,0.00
2013-1-23,35.0,22.2,11.5,22.1,12.6,4.7,80,67,54,30.44,30.17,21,9,24,0.00
2013-1-24,23.3,16.7,8.1,12.6,5.9,-1.0,76,62,49,30.67,30.30,15,8,18,0.00
2013-1-25,39.3,28.5,21.3,24.0,17.7,12.2,80,64,49,30.32,30.08,16,8,20,0.00
2013-1-26,32.5,22.5,11.0,17.9,12.7,6.6,83,67,48,30.44,30.28,9,4,11,0.00
2013-1-27,45.7,33.1,24.0,44.9,29.8,17.2,97,88,71,30.36,29.89,22,10,29,0.10
2013-1-28,59.1,50.3,45.5,57.4,49.6,44.5,99,97,93,29.95,29.74,13,5,18,0.01
2013-1-29,66.4,55.6,38.5,62.5,54.2,37.7,98,95,87,29.74,29.42,20,8,23,1.29
2013-1-30,38.5,30.1,19.8,37.6,27.6,14.6,98,90,78,29.87,29.29,30,16,36,0.23
2013-1-31,24.2,14.7,6.1,19.4,9.5,0.2,89,79,69,30.39,29.86,27,18,33,0.00
2013-2-1,22.0,11.4,2.1,19.0,4.9,-3.0,90,75,64,30.51,30.23,19,10,23,0.00
2013-2-2,28.6,23.2,18.8,24.4,18.8,14.9,91,83,75,30.23,30.08,20,10,23,0.00
2013-2-3,29.5,24.7,19.1,23.8,19.1,16.3,94,79,59,30.19,30.01,25,11,29,0.00
2013-2-4,37.9,29.1,21.8,29.0,23.3,19.1,89,79,67,30.02,29.82,13,5,18,0.00
2013-2-5,42.5,31.2,20.6,34.2,27.1,18.1,100,85,70,30.14,29.88,20,8,24,0.00
2013-2-6,46.9,35.0,22.2,36.5,30.1,20.7,96,83,64,30.24,30.04,14,6,16,0.00
2013-2-7,38.4,36.4,33.6,37.4,34.9,32.3,100,94,84,30.08,29.87,19,7,21,0.63
2013-2-8,33.5,30.2,27.1,32.2,27.0,23.7,95,88,82,30.40,30.08,16,6,21,0.00
2013-2-9,36.5,31.3,26.9,33.0,28.0,24.2,91,87,81,30.40,30.02,16,11,20,0.00
2013-2-10,50.8,42.8,35.3,48.6,39.8,31.7,100,90,69,30.04,29.47,27,16,33,0.53
2013-2-11,40.8,35.0,27.8,31.8,27.9,25.2,92,76,67,30.15,29.66,25,16,32,0.00
2013-2-12,39.2,30.8,24.3,30.6,26.7,22.6,94,85,66,30.19,29.96,9,3,10,0.00
2013-2-13,46.1,35.2,27.0,36.8,30.3,24.7,92,83,65,29.96,29.78,11,6,14,0.00
2013-2-14,40.7,36.8,33.4,34.0,32.2,29.9,92,83,72,30.06,29.75,22,11,23,0.00
2013-2-15,34.1,28.0,21.9,30.1,19.4,15.9,88,71,51,30.30,30.07,19,13,22,0.00
2013-2-16,30.1,22.1,14.9,20.7,14.9,9.8,87,74,59,30.30,30.19,14,8,19,0.00
2013-2-17,39.9,27.6,14.9,27.5,19.8,11.3,88,73,53,30.23,29.90,18,11,23,0.00
2013-2-18,53.9,39.8,26.0,48.3,34.5,20.9,96,82,69,29.90,29.46,28,15,33,0.59
2013-2-19,26.1,20.4,15.4,21.6,14.4,10.1,84,77,69,30.34,29.84,26,19,31,0.00
2013-2-20,20.2,14.9,6.5,14.6,9.0,1.6,82,77,71,30.49,30.32,15,5,18,0.00
2013-2-21,28.5,22.5,14.7,27.5,19.8,12.0,96,89,81,30.40,29.87,18,10,23,0.00
2013-2-22,31.3,28.5,22.1,30.5,26.6,19.4,97,93,87,30.04,29.80,17,9,20,0.07
2013-2-23,30.5,23.4,15.2,22.5,18.3,12.0,89,81,66,30.05,30.00,9,6,12,0.00
2013-2-24,39.6,25.6,11.0,28.7,20.0,8.6,93,80,59,30.16,30.04,8,3,11,0.00
2013-2-25,41.0,33.7,23.3,34.4,29.0,21.1,93,83,72,30.14,29.82,14,6,18,0.00
2013-2-26,36.0,32.9,30.6,32.4,31.0,29.5,98,93,78,29.83,29.48,18,9,19,0.29
2013-2-27,31.9,31.0,29.9,31.1,30.1,28.9,98,97,95,29.86,29.63,18,13,19,0.04
2013-2-28,33.3,31.8,29.2,31.2,30.4,28.5,97,94,91,30.12,29.86,16,12,17,0.00
2013-3-1,32.0,28.0,24.7,28.6,24.9,20.8,97,88,78,30.27,30.09,9,4,11,0.05
2013-3-2,29.2,21.4,9.7,21.3,16.9,6.9,90,83,71,30.31,30.24,13,6,15,0.00
2013-3-3,38.0,21.4,5.1,23.2,14.5,2.6,92,76,48,30.26,30.08,9,3,10,0.00
2013-3-4,37.1,32.4,28.0,31.2,28.2,23.1,93,84,78,30.10,29.85,23,15,25,0.01
2013-3-5,33.9,30.9,29.2,31.7,28.3,25.4,96,90,81,30.16,29.86,26,15,33,0.02
2013-3-6,29.3,26.5,22.9,26.2,22.6,19.9,89,85,80,30.39,30.16,20,11,22,0.00
2013-3-7,38.2,29.5,24.0,29.0,24.7,20.4,92,82,67,30.46,30.37,9,4,13,0.00
2013-3-8,45.9,35.3,24.6,38.1,31.0,22.6,94,85,71,30.45,30.22,14,8,15,0.00
2013-3-9,51.4,42.6,37.0,45.3,38.7,33.9,95,87,73,30.22,29.76,17,12,21,0.62
2013-3-10,51.3,47.9,43.6,50.4,46.6,41.3,97,95,84,29.79,29.55,14,6,18,0.58
2013-3-11,45.3,34.3,30.6,44.5,32.2,26.0,100,92,82,29.96,29.64,20,15,28,0.02
2013-3-12,37.3,31.1,26.0,31.6,26.3,20.5,94,82,74,30.20,29.95,25,14,29,0.00
2013-3-13,35.4,28.6,23.0,25.9,21.4,18.7,92,75,55,30.42,30.19,23,14,27,0.00
2013-3-14,49.7,36.3,26.3,37.0,29.3,22.1,92,76,54,30.40,30.09,17,5,20,0.00
2013-3-15,55.3,42.2,29.9,45.5,37.4,28.4,96,84,66,30.09,29.66,10,3,13,0.00
2013-3-16,45.9,37.9,34.6,42.2,34.2,29.5,97,87,75,30.13,29.65,14,4,19,0.00
2013-3-17,39.6,34.1,30.1,30.8,28.4,24.8,87,80,68,30.18,29.89,17,9,19,0.00
2013-3-18,44.5,34.2,27.0,36.6,30.4,20.3,96,86,66,29.99,29.72,26,12,29,0.02
2013-3-19,41.4,30.1,21.6,23.1,18.1,13.6,81,62,34,30.20,29.96,19,12,23,0.00
2013-3-20,29.4,24.0,17.2,22.7,13.1,6.6,83,64,44,30.28,30.15,29,18,33,0.00
2013-3-21,35.5,23.9,12.8,16.1,12.3,8.1,85,63,39,30.18,30.03,8,3,9,0.00
2013-3-22,43.8,30.8,16.8,25.7,19.3,13.6,92,65,39,30.11,30.01,10,2,13,0.00
2013-3-23,49.6,40.0,32.3,28.7,26.3,24.8,75,59,42,30.11,29.94,9,4,12,0.00
2013-3-24,36.6,30.8,29.2,31.7,29.4,27.3,97,95,69,29.98,29.69,11,7,15,0.25
2013-3-25,34.2,30.2,27.9,30.7,28.3,25.3,97,92,87,30.20,29.84,19,12,23,0.15
2013-3-26,39.1,32.6,24.1,29.3,27.1,21.3,91,81,64,30.34,30.20,16,10,18,0.06
2013-3-27,42.9,34.2,22.5,29.8,25.8,20.3,92,73,48,30.41,30.33,6,3,9,0.00
2013-3-28,49.0,37.0,22.9,36.1,29.0,21.2,94,74,53,30.40,30.29,10,4,13,0.00
2013-3-29,58.3,46.5,34.6,40.4,35.3,30.6,86,67,43,30.32,30.20,8,3,12,0.00
2013-3-30,55.5,46.2,35.1,45.7,40.3,31.4,93,80,64,30.22,29.90,18,7,22,0.00
2013-3-31,59.3,48.9,39.1,47.6,40.9,30.1,97,76,41,29.99,29.83,24,11,32,0.00
2013-4-1,43.2,35.9,28.4,30.7,23.5,17.6,86,62,36,30.28,29.99,18,10,25,0.00
2013-4-2,47.2,34.4,22.1,25.1,20.5,14.3,88,61,28,30.38,30.28,16,5,19,0.00
2013-4-3,50.4,36.6,21.8,23.1,20.3,17.6,87,55,30,30.47,30.31,12,4,18,0.00
2013-4-4,60.4,44.2,28.7,29.9,25.1,21.1,80,50,27,30.30,30.02,8,3,11,0.00
2013-4-5,62.0,48.2,32.4,35.6,31.1,25.7,89,55,29,30.21,30.02,16,5,18,0.00
2013-4-6,73.8,58.9,45.7,53.7,38.8,26.1,78,49,30,30.03,29.63,25,15,34,0.12
2013-4-7,71.5,56.0,39.7,49.4,45.0,37.6,94,69,41,29.93,29.74,13,4,15,0.00
2013-4-8,72.2,63.1,55.6,62.9,57.7,47.1,95,83,63,29.83,29.56,20,8,23,0.60
2013-4-9,76.0,67.6,60.8,64.7,60.9,57.4,90,80,64,29.83,29.75,20,9,24,0.00
2013-4-10,66.6,49.9,43.9,61.6,48.3,42.1,98,94,84,29.89,29.63,16,7,21,1.42
2013-4-11,49.0,44.4,37.3,48.5,41.5,32.4,98,90,79,29.69,29.61,18,11,20,0.07
2013-4-12,43.7,39.5,37.0,36.5,34.8,32.6,91,83,72,29.96,29.66,18,11,22,0.00
2013-4-13,51.4,43.5,35.8,40.7,34.1,28.7,83,70,52,30.04,29.92,16,9,18,0.00
2013-4-14,76.1,60.8,46.4,56.3,47.9,37.3,86,65,42,29.93,29.54,22,14,30,0.01
2013-4-15,57.6,53.4,42.9,55.2,48.8,38.8,97,85,69,29.99,29.70,13,6,33,0.48
2013-4-16,51.8,46.3,40.9,42.8,39.7,36.6,93,79,61,30.20,29.95,9,4,11,0.22
2013-4-17,59.0,49.4,44.0,58.4,46.3,37.3,98,89,71,30.20,29.66,18,10,28,3.86
2013-4-18,63.3,52.6,38.3,61.5,50.5,33.0,99,93,79,29.70,29.46,26,12,32,1.98
2013-4-19,43.1,38.4,34.1,36.0,31.9,29.8,87,78,64,30.07,29.66,23,16,27,0.01
2013-4-20,50.5,39.7,31.3,35.6,30.9,27.8,89,72,43,30.37,30.07,10,4,11,0.00
2013-4-21,58.8,48.1,37.3,45.8,38.5,31.9,83,70,56,30.43,30.25,21,13,24,0.00
2013-4-22,67.6,56.1,42.0,50.5,42.6,36.3,81,63,40,30.27,29.97,17,8,20,0.01
2013-4-23,57.1,44.4,38.2,50.6,42.1,36.9,96,92,77,30.04,29.92,17,6,21,0.82
2013-4-24,50.4,41.7,35.4,38.1,34.5,30.6,95,77,47,30.19,30.01,18,10,19,0.06
2013-4-25,58.0,47.3,37.9,41.0,35.3,30.5,87,65,43,30.33,30.16,21,9,25,0.00
2013-4-26,62.1,52.8,43.3,49.8,44.0,36.4,83,72,60,30.33,30.23,18,9,21,0.00
2013-4-27,55.9,51.1,42.8,50.7,47.5,41.1,96,88,72,30.28,29.97,13,4,16,0.06
2013-4-28,67.0,57.1,51.3,56.5,52.4,49.3,97,85,66,29.96,29.84,12,5,12,0.00
2013-4-29,79.1,63.3,47.4,64.7,55.9,46.0,99,78,54,29.89,29.68,17,10,23,0.00
2013-4-30,86.6,74.1,62.7,63.2,59.0,53.6,91,63,34,29.89,29.69,20,12,26,0.00
2013-5-1,82.8,73.7,61.7,58.7,56.0,50.3,81,56,33,30.06,29.89,15,8,17,0.00
2013-5-2,69.0,53.6,42.7,58.6,47.3,40.5,95,80,68,30.19,30.05,18,6,21,0.16
2013-5-3,52.0,44.1,41.3,51.5,43.2,40.2,98,96,95,30.13,29.78,11,4,18,2.33
2013-5-4,59.0,53.1,46.7,55.7,51.3,45.3,98,94,87,30.03,29.82,13,6,15,0.19
2013-5-5,70.6,59.6,49.6,61.0,53.4,48.5,97,82,52,30.03,29.90,14,3,16,0.00
2013-5-6,76.2,64.4,53.6,59.0,53.2,48.9,93,70,40,30.02,29.93,10,3,14,0.00
2013-5-7,79.8,67.6,52.2,56.6,49.3,43.4,86,56,29,30.03,29.95,5,1,6,0.00
2013-5-8,80.3,67.9,52.4,61.4,53.2,47.7,89,63,33,30.02,29.93,12,2,12,0.00
2013-5-9,68.0,63.0,59.5,63.8,60.3,56.8,96,91,81,29.96,29.80,16,6,17,0.42
2013-5-10,59.8,55.1,52.1,58.7,52.7,48.4,97,92,86,29.99,29.80,14,4,14,0.01
2013-5-11,59.6,51.8,42.2,53.1,41.6,33.4,100,71,42,30.14,29.95,27,12,34,0.00
2013-5-12,58.0,48.2,37.0,38.2,33.2,28.5,84,59,36,30.23,30.12,21,9,27,0.00
2013-5-13,71.6,55.7,36.5,46.3,38.6,32.4,92,57,29,30.20,29.97,11,4,19,0.00
2013-5-14,91.4,73.4,56.2,64.8,56.5,44.7,78,57,39,29.97,29.68,22,11,24,0.00
2013-5-15,84.1,75.8,65.5,65.4,59.9,55.1,76,58,48,29.82,29.73,16,8,18,0.00
2013-5-16,83.7,72.2,62.3,65.9,62.1,55.5,94,73,45,29.91,29.81,10,4,12,0.07
2013-5-17,81.8,70.7,56.3,66.5,60.9,54.6,96,73,42,29.95,29.88,11,5,16,0.01
2013-5-18,81.9,72.0,61.4,68.3,64.3,60.4,98,78,55,29.98,29.85,12,6,20,0.00
2013-5-19,89.2,76.7,66.6,74.4,68.7,63.3,92,77,57,29.87,29.64,22,11,24,0.00
2013-5-20,81.8,71.9,62.4,69.7,63.9,60.3,94,77,53,29.80,29.65,29,12,29,1.27
2013-5-21,80.0,72.6,63.5,66.1,63.5,59.5,93,74,58,29.70,29.63,17,11,20,0.00
2013-5-22,71.1,64.4,58.6,60.3,57.9,55.5,93,80,60,29.81,29.62,16,8,22,0.01
2013-5-23,66.9,59.0,51.7,57.2,53.6,49.3,96,83,61,30.25,29.81,13,6,16,0.01
2013-5-24,67.9,55.9,44.2,49.5,44.5,38.5,96,69,36,30.43,30.25,8,3,12,0.01
2013-5-25,55.0,52.6,48.8,52.3,47.7,43.4,95,84,70,30.40,30.18,16,8,17,0.59
2013-5-26,66.1,57.5,51.1,61.8,55.1,48.4,96,92,85,30.24,30.00,16,11,20,1.06
2013-5-27,70.0,65.2,59.8,66.6,63.4,57.8,97,94,87,30.02,29.73,23,6,25,1.10
2013-5-28,77.4,71.3,64.2,72.2,67.6,61.2,95,88,79,29.92,29.69,23,12,30,0.58
2013-5-29,84.8,73.6,62.1,73.4,66.9,60.8,96,81,59,29.93,29.76,18,8,20,0.12
2013-5-30,82.6,72.5,63.1,72.6,66.7,61.1,95,82,66,29.83,29.69,23,12,29,1.10
2013-5-31,74.2,67.1,62.8,71.0,64.9,60.9,98,93,86,29.86,29.66,19,7,21,0.52
2013-6-1,75.4,67.7,60.7,69.3,63.2,58.1,96,86,61,29.82,29.67,16,10,20,0.00
2013-6-2,61.4,59.4,56.8,59.2,54.9,51.2,95,85,76,30.03,29.81,18,8,20,0.00
2013-6-3,66.4,59.6,51.5,54.7,51.4,44.6,95,76,50,30.13,30.00,10,3,13,0.00
2013-6-4,72.4,62.6,50.6,58.6,54.5,49.2,96,76,56,30.11,29.99,13,5,15,0.00
2013-6-5,78.3,67.7,55.7,63.7,59.2,54.4,97,76,49,30.02,29.86,7,1,9,0.00
2013-6-6,72.8,65.2,59.7,63.1,59.9,57.4,94,83,66,29.89,29.83,7,1,13,0.00
2013-6-7,72.2,63.7,53.9,59.3,56.1,52.2,95,78,57,29.93,29.88,4,1,13,0.00
2013-6-8,78.6,66.7,52.0,58.6,55.3,50.5,97,70,43,29.95,29.88,10,3,12,0.00
2013-6-9,75.8,67.8,63.5,65.4,61.2,57.2,93,80,64,29.92,29.75,14,7,17,0.05
2013-6-10,77.5,68.7,61.6,65.0,62.1,60.2,97,81,58,29.88,29.73,11,4,13,0.01
2013-6-11,90.4,75.2,59.2,73.8,66.7,57.8,96,77,51,29.92,29.77,17,7,20,0.02
2013-6-12,95.2,83.2,70.6,75.4,72.0,67.7,94,71,50,29.85,29.59,21,11,28,0.00
2013-6-13,84.0,75.1,66.8,66.9,60.9,55.0,92,64,38,29.97,29.68,20,5,21,0.00
2013-6-14,79.7,70.3,59.0,64.0,59.8,55.4,89,70,50,30.10,29.93,12,4,17,0.00
2013-6-15,81.1,71.0,66.1,73.1,67.0,62.9,96,88,72,30.05,29.86,27,6,32,1.96
2013-6-16,82.8,74.0,66.2,73.4,68.9,64.7,96,85,68,29.95,29.88,12,4,13,0.00
2013-6-17,85.6,76.0,64.3,72.2,67.7,61.4,98,78,47,29.94,29.86,5,2,7,0.00
2013-6-18,81.7,73.8,65.2,71.5,66.4,60.3,97,79,61,29.99,29.86,7,3,12,0.00
2013-6-19,83.8,71.4,57.6,66.0,60.5,55.1,92,71,42,30.08,29.99,5,2,7,0.00
2013-6-20,89.3,77.2,61.5,70.1,65.9,59.7,95,71,46,30.09,29.99,13,5,17,0.00
2013-6-21,90.8,79.1,71.4,75.9,71.2,67.2,92,78,59,30.03,29.90,16,8,21,0.08
2013-6-22,89.9,79.8,71.7,76.6,72.6,65.6,88,79,61,30.02,29.91,18,8,23,0.00
2013-6-23,88.3,74.0,68.6,75.3,68.3,64.5,95,83,57,29.99,29.86,19,7,22,0.03
2013-6-24,86.8,73.2,67.5,77.2,69.3,65.2,95,88,63,30.05,29.83,12,6,22,0.41
2013-6-25,85.7,77.0,70.2,77.6,72.5,67.6,95,86,72,29.90,29.76,16,7,18,0.81
2013-6-26,85.5,77.5,69.3,78.1,73.4,65.4,96,87,77,29.80,29.68,11,5,13,0.00
2013-6-27,88.8,78.7,71.6,74.4,71.1,67.9,97,79,51,29.84,29.75,14,6,17,0.00
2013-6-28,84.4,75.7,66.4,68.3,64.0,58.4,95,70,42,29.80,29.65,22,10,29,0.00
2013-6-29,72.6,67.9,63.6,67.5,64.0,61.0,95,87,76,29.77,29.63,13,5,17,0.18
2013-6-30,78.7,68.4,62.0,65.7,62.3,58.9,96,82,56,29.97,29.77,8,2,13,0.05
2013-7-1,78.8,68.4,58.4,60.6,55.9,52.6,87,66,43,30.03,29.95,6,2,12,0.00
2013-7-2,77.1,67.6,57.5,61.9,57.0,53.0,89,70,50,30.05,30.00,7,2,12,0.00
2013-7-3,79.5,68.8,58.0,64.4,59.1,54.7,93,73,47,30.07,29.99,4,1,6,0.00
2013-7-4,84.9,74.1,60.8,66.6,62.9,58.6,95,70,45,30.06,29.98,10,4,11,0.00
2013-7-5,85.2,74.8,62.7,70.0,64.3,60.5,96,72,45,30.05,29.96,9,4,13,0.00
2013-7-6,86.3,74.7,62.8,71.8,67.2,61.3,97,79,51,30.02,29.93,10,4,12,0.00
2013-7-7,90.5,79.8,67.7,74.0,69.6,63.4,91,72,54,29.97,29.92,11,5,14,0.00
2013-7-8,85.8,79.1,73.4,78.4,74.3,70.4,92,86,73,30.01,29.94,13,6,18,0.19
2013-7-9,90.5,82.3,76.1,79.5,75.8,71.8,92,81,67,29.98,29.84,10,5,13,0.01
2013-7-10,86.8,79.5,67.1,76.0,70.3,62.4,93,75,52,30.00,29.81,12,3,19,0.01
2013-7-11,81.9,71.7,60.9,66.1,61.8,58.4,94,73,47,30.07,30.00,5,1,11,0.00
2013-7-12,82.1,70.0,54.2,65.9,59.0,52.5,97,71,43,30.13,30.04,7,2,10,0.00
2013-7-13,82.3,71.0,56.0,67.3,61.9,54.5,96,75,50,30.12,30.03,9,3,12,0.00
2013-7-14,86.9,76.0,63.1,73.0,67.8,61.3,96,77,56,30.14,30.06,10,3,12,0.00
2013-7-15,88.9,79.7,70.2,77.2,73.0,68.4,96,81,61,30.21,30.13,9,3,11,0.00
2013-7-16,91.0,81.5,71.7,78.6,74.7,70.5,98,81,61,30.27,30.19,7,2,10,0.00
2013-7-17,93.8,83.5,71.2,78.8,75.0,69.6,96,77,53,30.29,30.15,6,1,7,0.00
2013-7-18,93.1,83.7,73.1,78.9,75.3,71.4,96,77,57,30.17,29.95,7,3,10,0.00
2013-7-19,93.9,83.9,73.8,77.1,73.5,70.9,91,73,48,29.95,29.78,15,6,18,0.00
2013-7-20,88.1,79.3,68.8,71.9,69.5,65.9,91,74,49,29.89,29.80,6,2,7,0.00
2013-7-21,80.1,72.3,64.8,74.7,69.3,63.3,97,91,77,29.90,29.82,7,2,9,0.08
2013-7-22,87.4,75.6,64.0,77.2,70.6,63.1,98,86,65,29.86,29.73,9,2,12,0.04
2013-7-23,80.9,72.1,64.1,72.0,66.1,61.1,95,82,63,29.92,29.75,7,2,14,0.00
2013-7-24,77.6,67.7,57.9,61.4,58.8,56.0,96,75,51,30.04,29.91,6,2,15,0.00
2013-7-25,81.8,68.6,52.8,64.8,59.5,51.3,97,75,49,30.10,30.02,6,1,9,0.00
2013-7-26,77.3,68.2,60.4,72.4,64.3,57.8,95,88,80,30.03,29.87,12,4,22,0.78
2013-7-27,68.0,61.4,52.8,58.4,53.9,49.9,97,78,54,29.99,29.93,18,7,22,0.00
2013-7-28,73.7,61.5,48.4,60.6,53.3,46.8,95,76,52,30.05,29.95,12,6,17,0.00
2013-7-29,78.2,65.7,50.6,65.5,58.1,49.2,97,78,53,30.15,30.05,4,1,9,0.00
2013-7-30,72.7,67.4,63.1,70.1,65.6,60.7,98,94,79,30.12,29.99,10,4,12,0.91
2013-7-31,76.8,70.5,65.2,70.7,67.7,63.9,98,91,76,30.04,29.97,9,3,12,0.04
2013-8-1,84.1,72.6,60.0,70.9,65.0,59.1,98,79,50,30.05,29.92,9,2,11,0.01
2013-8-2,84.3,73.6,66.6,74.4,68.5,63.6,96,85,62,29.94,29.85,8,4,11,0.01
2013-8-3,81.5,73.0,63.6,69.8,64.4,60.6,96,76,52,30.11,29.93,5,1,10,0.00
2013-8-4,81.9,70.0,58.8,65.9,60.0,56.4,95,73,45,30.17,30.06,3,0,6,0.00
2013-8-5,76.8,69.1,61.1,71.4,64.9,59.1,95,87,78,30.08,29.83,8,4,11,0.01
2013-8-6,87.8,75.6,66.1,78.2,71.7,64.9,98,89,66,29.89,29.76,9,3,11,0.00
2013-8-7,87.1,77.0,68.3,79.2,72.6,65.9,97,87,67,29.92,29.77,9,2,13,0.00
2013-8-8,80.9,72.0,62.8,71.6,66.9,61.4,97,85,70,29.97,29.90,6,1,8,0.00
2013-8-9,80.5,71.6,61.1,70.9,66.0,60.0,98,84,63,30.05,29.95,4,1,5,0.00
2013-8-10,81.0,71.1,60.3,67.6,62.7,56.8,95,77,51,30.14,30.05,6,1,9,0.00
2013-8-11,83.4,71.1,56.1,71.5,63.4,54.7,97,78,56,30.13,30.02,5,2,9,0.00
2013-8-12,80.8,72.7,63.0,73.2,67.9,61.2,95,85,75,30.04,29.89,10,3,12,0.00
2013-8-13,76.6,65.5,54.6,64.7,58.7,51.1,98,80,55,30.15,29.94,5,1,9,0.00
2013-8-14,75.8,61.0,46.9,59.7,52.9,45.5,97,77,46,30.22,30.13,5,1,7,0.00
2013-8-15,74.0,63.4,53.7,61.5,56.3,51.8,97,80,48,30.17,30.08,6,1,13,0.00
2013-8-16,78.2,66.7,54.8,62.5,58.0,53.7,97,76,48,30.17,30.11,7,1,13,0.00
2013-8-17,78.1,65.9,51.5,63.6,58.1,50.1,98,78,52,30.20,30.12,8,2,11,0.00
2013-8-18,83.3,68.5,53.6,69.0,60.4,52.5,98,78,49,30.18,30.07,5,1,7,0.00
2013-8-19,84.7,71.7,57.4,70.6,64.9,56.1,98,81,57,30.11,30.01,6,1,9,0.00
2013-8-20,86.0,75.2,64.2,72.7,67.7,61.8,93,79,58,30.08,29.99,6,3,14,0.00
2013-8-21,87.7,76.5,64.4,74.0,69.1,62.6,96,79,58,30.07,29.97,9,4,12,0.00
2013-8-22,84.9,75.2,66.4,75.9,70.5,64.6,96,86,71,30.06,30.00,10,3,13,0.00
2013-8-23,84.5,74.1,64.4,72.6,68.3,63.2,97,83,63,30.11,30.05,7,2,10,0.00
2013-8-24,87.1,74.5,62.3,73.9,68.2,61.1,96,82,61,30.19,30.09,6,3,9,0.00
2013-8-25,89.0,76.5,65.5,74.6,69.1,63.1,94,79,54,30.23,30.12,7,3,13,0.00
2013-8-26,91.7,78.3,63.1,78.5,71.5,61.6,97,81,58,30.15,29.98,6,3,11,0.00
2013-8-27,92.7,79.6,69.3,76.3,71.2,65.2,97,77,52,30.01,29.89,11,5,14,0.00
2013-8-28,94.8,80.6,67.5,81.9,71.6,64.8,94,76,50,29.96,29.90,10,4,12,0.00
2013-8-29,88.4,79.3,70.0,78.8,74.7,68.7,96,87,71,30.02,29.92,7,2,9,0.00
2013-8-30,96.5,83.2,72.3,82.9,76.0,71.4,98,81,51,29.93,29.75,7,2,11,0.00
2013-8-31,91.7,80.9,71.7,80.3,73.9,67.4,93,80,64,29.78,29.70,10,3,12,0.00
2013-9-1,87.8,75.6,65.0,75.2,68.6,62.4,98,81,54,29.84,29.74,10,4,16,0.01
2013-9-2,79.8,68.9,58.6,67.7,61.0,55.1,95,78,53,29.98,29.84,9,2,12,0.00
2013-9-3,80.8,65.5,52.2,64.2,57.9,50.8,97,79,50,30.09,29.98,6,1,7,0.00
2013-9-4,86.9,68.6,50.6,65.8,58.0,49.2,98,73,39,30.15,30.05,3,1,6,0.01
2013-9-5,88.4,73.8,59.1,72.1,63.9,56.7,95,74,47,30.18,30.10,6,1,9,0.00
2013-9-6,87.1,73.7,60.4,70.1,65.4,59.1,96,77,52,30.15,29.98,6,2,9,0.00
2013-9-7,88.6,75.2,60.5,76.5,67.8,58.8,96,79,56,30.00,29.85,9,3,10,0.02
2013-9-8,84.5,76.2,70.3,75.2,71.5,68.0,97,86,71,29.93,29.83,16,5,16,1.61
2013-9-9,94.5,80.8,71.4,78.7,73.2,67.5,96,80,53,29.89,29.81,8,4,12,0.00
2013-9-10,92.9,79.0,66.8,76.7,70.0,64.1,93,76,47,30.01,29.89,11,4,15,0.00
2013-9-11,92.4,77.6,67.5,74.0,69.1,64.8,92,77,48,30.06,29.98,10,3,13,0.00
2013-9-12,80.8,71.3,59.0,70.4,61.7,52.2,96,75,38,30.08,29.99,17,5,21,0.14
2013-9-13,71.9,60.1,48.6,53.5,49.2,42.9,93,71,36,30.18,30.07,5,2,7,0.00
2013-9-14,73.1,57.9,42.6,52.8,47.7,41.3,97,72,40,30.19,30.01,6,2,9,0.00
2013-9-15,67.3,51.4,55.8,64.0,31.1,-99.9,95,71,74,30.17,29.95,8,-161,11,0.10
2013-9-16,70.3,60.1,52.5,57.8,54.8,49.4,96,84,60,30.33,30.17,7,2,12,0.00
2013-9-17,71.7,60.6,49.7,63.9,56.4,48.3,97,87,72,30.29,30.07,10,3,14,0.00
2013-9-18,85.6,72.0,59.0,74.2,66.5,57.3,95,84,66,30.07,29.87,11,5,16,0.00
2013-9-19,90.1,78.0,66.8,74.5,70.3,65.2,97,79,57,29.91,29.75,13,6,24,0.26
2013-9-20,71.1,65.2,54.5,67.1,60.3,52.0,98,85,56,29.91,29.78,15,6,18,0.29
2013-9-21,70.0,58.4,49.4,55.1,51.1,47.8,95,79,51,29.96,29.89,9,4,16,0.02
2013-9-22,71.3,48.2,45.2,56.2,22.3,-99.9,95,61,46,30.05,29.93,7,-183,9,0.00
2013-9-23,74.2,49.5,47.5,56.0,22.5,-99.9,95,59,45,30.05,29.93,10,-186,16,0.00
2013-9-24,75.5,51.4,48.5,62.4,25.7,-99.9,94,62,59,29.96,29.82,11,-192,13,0.00
2013-9-25,78.7,66.0,54.1,64.2,58.0,51.5,92,77,55,29.90,29.84,8,2,10,0.00
2013-9-26,83.2,68.0,55.0,66.3,59.0,52.6,93,75,50,30.01,29.89,9,3,13,0.00
2013-9-27,82.5,59.3,54.4,65.3,35.4,-99.9,91,60,43,30.09,29.97,12,-138,17,0.00
2013-9-28,81.5,67.0,57.6,69.1,61.3,55.1,95,83,58,30.01,29.89,16,6,22,0.00
2013-9-29,71.5,58.6,46.5,57.3,50.5,45.7,100,78,41,30.08,29.98,7,2,11,0.00
2013-9-30,77.3,61.3,44.5,59.1,52.4,43.2,97,76,45,29.98,29.85,9,3,14,0.18
2013-10-1,82.4,69.9,60.5,68.7,64.3,58.1,97,84,58,29.97,29.88,10,5,13,0.00
2013-10-2,83.1,70.6,59.8,71.0,65.2,58.8,98,85,52,30.03,29.91,11,2,14,0.01
2013-10-3,83.3,70.5,64.0,71.7,67.1,61.2,97,90,65,29.92,29.79,26,4,34,0.79
2013-10-4,85.9,75.1,64.8,73.7,69.0,63.6,97,83,56,29.92,29.84,10,5,14,0.01
2013-10-5,74.8,67.6,53.4,70.8,64.4,50.5,96,89,82,29.89,29.78,12,6,15,0.13
2013-10-6,53.3,48.0,43.0,50.4,43.8,39.9,96,86,68,29.85,29.78,11,5,20,0.18
2013-10-7,70.0,55.4,46.0,51.5,47.9,44.6,97,79,44,30.10,29.85,11,5,14,0.00
2013-10-8,77.4,60.6,45.2,53.3,48.7,43.1,95,69,38,30.18,30.09,8,4,13,0.00
2013-10-9,73.2,57.5,43.4,52.7,48.1,42.2,97,74,42,30.19,30.08,9,2,12,0.00
2013-10-10,77.6,60.4,44.9,60.2,52.9,43.6,97,79,50,30.15,29.98,9,2,15,0.00
2013-10-11,78.3,65.2,53.0,62.1,56.7,51.9,97,76,49,30.01,29.86,16,6,21,0.01
2013-10-12,72.0,62.9,49.8,61.4,51.6,42.0,92,69,37,30.21,29.89,11,5,16,0.00
2013-10-13,68.9,52.7,39.4,45.2,39.6,34.2,92,66,28,30.41,30.21,5,1,6,0.00
2013-10-14,66.3,51.1,35.3,46.9,41.0,33.7,96,71,39,30.38,30.04,17,6,20,0.00
2013-10-15,70.9,59.5,46.5,62.3,52.9,40.5,96,80,56,30.04,29.81,14,7,18,0.06
2013-10-16,53.1,49.7,41.6,45.3,43.5,38.4,92,79,72,30.00,29.92,13,7,16,0.00
2013-10-17,62.6,51.0,42.7,47.3,42.9,38.6,96,77,42,29.99,29.85,13,5,18,0.11
2013-10-18,54.8,45.7,39.1,43.0,39.8,36.9,96,81,55,30.04,29.88,13,6,17,0.02
2013-10-19,55.9,45.8,35.2,41.3,38.0,33.9,96,76,48,30.00,29.86,14,8,21,0.01
2013-10-20,71.3,53.6,37.5,46.4,41.7,34.9,93,68,35,29.90,29.74,18,5,20,0.00
2013-10-21,56.8,44.5,31.9,47.4,34.4,26.5,88,69,43,30.04,29.85,16,8,21,0.00
2013-10-22,45.5,38.1,30.0,43.9,35.9,26.9,95,92,85,30.03,29.83,11,4,13,0.36
2013-10-23,44.8,37.9,30.7,37.1,32.5,28.5,95,82,56,30.13,30.01,11,7,13,0.00
2013-10-24,39.6,35.9,25.4,36.3,28.4,22.0,93,75,57,30.40,30.11,15,7,18,0.02
2013-10-25,54.3,37.7,23.5,35.0,27.4,21.4,94,70,34,30.49,30.16,15,6,19,0.00
2013-10-26,55.4,36.0,29.7,38.7,3.6,-99.9,86,46,37,30.15,29.99,20,-203,25,0.00
2013-10-27,58.1,41.3,26.0,35.4,30.2,23.7,100,68,38,30.14,29.99,11,4,16,0.00
2013-10-28,63.9,46.6,30.6,40.5,34.3,28.1,92,66,35,30.29,30.07,11,2,13,0.00
2013-10-29,53.9,47.3,38.2,52.0,43.6,36.6,97,87,67,30.28,30.08,12,6,14,0.02
2013-10-30,64.1,57.6,52.7,63.8,57.0,51.9,99,98,97,30.08,29.75,10,5,13,0.66
2013-10-31,63.9,56.2,45.0,63.3,54.9,43.4,98,96,92,29.75,29.33,16,8,19,1.12
2013-11-1,51.9,45.5,39.7,44.9,42.3,37.3,97,89,73,29.81,29.52,14,7,20,0.01
2013-11-2,51.9,44.0,32.5,42.7,37.2,29.6,93,78,52,30.18,29.81,17,8,23,0.01
2013-11-3,55.2,41.9,27.5,39.2,33.5,26.0,96,74,48,30.30,30.15,15,6,18,0.01
2013-11-4,55.5,51.1,45.7,46.5,42.1,37.2,77,71,62,30.18,30.06,17,10,21,0.00
2013-11-5,55.9,53.4,50.9,53.2,50.7,46.4,96,91,77,30.23,29.92,16,9,19,0.19
2013-11-6,57.2,44.8,31.8,56.4,42.2,29.5,97,91,81,30.26,29.83,18,10,24,0.57
2013-11-7,48.6,36.6,26.5,39.5,31.2,24.8,95,82,58,30.35,30.26,17,6,22,0.00
2013-11-8,49.8,40.2,25.1,38.0,32.1,23.6,96,74,57,30.35,29.97,17,9,22,0.00
2013-11-9,62.2,50.8,41.0,43.3,39.1,35.0,83,66,42,30.24,29.95,18,11,23,0.00
2013-11-10,50.5,39.7,31.2,34.7,32.0,28.1,89,75,51,30.44,30.24,10,4,13,0.00
2013-11-11,53.0,40.8,24.8,41.9,34.1,20.4,95,78,64,30.59,30.14,13,7,18,0.02
2013-11-12,30.3,22.7,16.6,21.9,17.6,13.1,89,81,66,30.82,30.59,12,5,14,0.01
2013-11-13,44.1,29.7,15.2,23.9,19.1,12.3,90,67,37,30.71,30.24,16,8,22,0.01
2013-11-14,54.3,39.8,30.3,29.9,25.0,21.2,72,57,34,30.24,29.99,18,10,22,0.00
2013-11-15,51.6,42.1,33.2,39.7,33.5,25.1,85,72,62,30.02,29.89,14,6,15,0.00
2013-11-16,60.7,54.7,42.7,56.4,51.2,38.6,92,88,81,29.89,29.53,19,12,26,0.05
2013-11-17,68.0,55.8,42.2,64.6,51.8,39.6,97,86,73,29.90,29.22,32,13,40,0.65
2013-11-18,48.2,39.8,30.6,40.1,33.7,26.9,94,80,52,30.32,29.90,19,9,25,0.00
2013-11-19,46.3,34.7,24.8,31.8,28.1,22.8,94,78,51,30.38,30.22,11,6,14,0.00
2013-11-20,41.7,36.8,32.6,39.0,33.4,28.9,95,87,77,30.24,30.02,16,10,19,0.13
2013-11-21,47.9,44.3,40.9,46.3,42.6,39.0,96,94,90,30.26,30.07,8,2,10,0.15
2013-11-22,40.9,34.0,25.0,39.6,31.7,22.9,96,91,82,30.57,30.25,14,7,17,0.04
2013-11-23,24.8,21.2,12.8,22.8,15.9,9.1,92,80,66,30.80,30.56,17,9,26,0.00
2013-11-24,28.7,18.9,9.1,15.3,10.7,6.1,89,72,45,30.82,30.42,12,4,14,0.00
2013-11-25,35.0,28.6,23.0,27.5,20.0,14.0,86,70,53,30.42,30.16,15,9,18,0.00
2013-11-26,33.7,25.9,17.7,28.0,19.3,10.8,91,76,55,30.30,30.11,20,10,26,0.00
2013-11-27,27.1,19.0,11.3,12.6,10.5,7.3,84,70,51,30.39,30.26,10,6,15,0.00
2013-11-28,38.0,26.4,18.6,23.9,18.1,11.2,87,71,55,30.55,30.20,14,7,19,0.00
2013-11-29,38.4,26.0,11.6,26.0,19.0,9.2,100,76,53,30.64,30.39,13,5,16,0.00
2013-11-30,53.6,37.6,28.0,37.9,30.6,24.5,92,77,54,30.39,30.07,14,5,17,0.00
2013-12-1,50.0,36.9,25.4,36.4,30.8,23.7,96,80,56,30.15,29.95,5,2,6,0.00
2013-12-2,44.5,37.7,31.9,39.0,34.1,29.0,96,87,77,29.95,29.67,11,5,13,0.00
2013-12-3,50.8,42.7,33.5,49.5,41.8,32.6,100,97,93,29.68,29.59,13,5,14,0.01
2013-12-4,54.1,46.1,30.4,53.7,44.8,26.7,99,95,85,29.85,29.50,17,7,22,0.01
2013-12-5,30.2,22.4,18.5,26.8,16.2,12.2,88,77,70,30.36,29.85,19,14,24,0.00
2013-12-6,19.5,15.1,9.8,13.5,8.7,5.7,92,75,61,30.66,30.34,13,8,17,0.00
2013-12-7,21.1,12.1,5.3,7.7,4.8,2.3,87,73,48,30.79,30.59,6,3,11,0.00
2013-12-8,23.5,20.3,13.1,22.3,16.8,6.9,95,86,74,30.60,30.05,12,6,17,0.00
2013-12-9,23.1,15.0,1.1,21.4,10.4,-2.6,93,82,74,30.33,30.07,15,8,19,0.00
2013-12-10,27.0,16.0,0.1,16.7,9.3,-3.6,87,75,58,30.35,30.15,18,8,20,0.00
2013-12-11,23.1,14.0,-0.4,18.7,7.8,-5.9,87,76,59,30.69,30.29,20,7,23,0.00
2013-12-12,33.9,17.3,-1.0,21.1,9.7,-5.1,85,73,57,30.65,30.25,16,6,19,0.00
2013-12-13,38.2,29.0,19.7,30.8,23.6,13.4,97,81,59,30.25,30.01,9,5,11,0.00
2013-12-14,31.8,28.0,16.9,30.9,26.7,13.7,98,95,89,30.14,29.93,19,7,21,0.06
2013-12-15,21.0,16.2,10.0,15.8,12.6,7.7,92,86,76,30.20,30.11,14,4,16,0.00
2013-12-16,22.9,19.4,15.8,21.4,17.1,13.5,94,91,85,30.18,30.05,12,5,14,0.00
2013-12-17,35.3,22.8,6.9,29.9,18.7,4.6,96,84,69,30.27,30.13,17,7,17,0.12
2013-12-18,40.9,28.1,7.0,33.7,20.6,3.2,89,74,56,30.25,29.88,13,8,16,0.10
2013-12-19,46.0,40.3,35.6,42.5,36.7,31.8,95,87,76,29.89,29.74,11,5,12,0.00
2013-12-20,44.0,34.9,28.4,42.9,34.1,27.2,97,97,94,29.88,29.71,13,5,15,0.10
2013-12-21,31.9,29.1,27.3,30.9,27.7,26.0,96,95,94,29.90,29.63,10,3,11,0.00
2013-12-22,32.0,27.1,18.0,31.0,25.3,15.0,97,93,87,30.28,29.65,4,0,6,0.00
2013-12-23,19.2,10.1,3.2,16.1,5.6,-2.7,92,82,75,30.62,30.29,12,4,17,0.00
2013-12-24,20.7,9.2,-2.6,15.3,3.5,-8.0,83,77,71,30.67,30.38,14,7,17,0.00
2013-12-25,30.8,26.6,20.7,27.9,23.8,15.3,95,89,78,30.38,30.21,15,9,22,0.00
2013-12-26,38.2,29.4,17.7,33.4,26.0,15.4,94,87,77,30.34,30.19,13,6,15,0.13
2013-12-27,45.0,33.4,22.9,38.5,29.9,21.4,96,87,74,30.35,30.18,11,6,13,0.08
2013-12-28,52.1,40.5,33.6,42.3,34.7,30.7,91,80,64,30.18,29.86,13,7,14,0.00
2013-12-29,36.2,21.0,5.3,31.6,17.4,-0.5,93,85,75,30.34,29.85,25,17,31,0.00
2013-12-30,18.4,9.8,0.7,11.8,2.0,-5.0,79,70,57,30.41,30.24,11,4,13,0.00
2013-12-31,28.7,19.8,12.3,21.0,14.6,9.2,92,80,69,30.44,30.22,12,6,13,0.00
2014-1-1,22.4,19.4,13.2,18.7,16.2,10.8,93,87,83,30.24,30.16,8,5,14,0.00
2014-1-2,14.8,10.2,-0.4,11.0,6.5,-4.1,90,85,78,30.52,30.21,17,8,21,0.00